Whitefield, NH

9:03 PM EDT on September 28, 2016 (GMT -0400)
Mount Washington Regional

Weather History for KHIE - December, 2012

Change the Weather History Date:

Tuesday, December 4, 2012

  Actual Average Record
Temperature  
Mean Temperature 36 °F -  
Max Temperature 43 °F 33 °F 55 °F (1998)
Min Temperature 30 °F 16 °F -8 °F (2002)
Degree Days  
Heating Degree Days 28    
Moisture  
Dew Point 31 °F    
Average Humidity 91    
Maximum Humidity 100    
Minimum Humidity 80    
Precipitation  
Precipitation 0.00 in - - ()
Sea Level Pressure  
Sea Level Pressure 30.09 in    
Wind  
Wind Speed 1 mph (East)    
Max Wind Speed 5 mph    
Max Gust Speed -    
Visibility 6 miles    
Events Fog , Rain    
Averages and records for this station are not official NWS values.
T = Trace of Precipitation, MM = Missing Value Source: NWS Daily Summary

Daily Weather History Graph

Daily Weather History Graph

Search for Another Location

Airport or City:

Trip Planner

Search our weather history database for the weather conditions in past years. The results will help you decide how hot, cold, wet, or windy it might be!

Date:

Astronomy

Dec. 04, 2012 Rise Set
Actual Time 7:05 AM EST 4:07 PM EST
Civil Twilight 6:32 AM EST 4:40 PM EST
Nautical Twilight 5:56 AM EST 5:16 PM EST
Astronomical Twilight 5:21 AM EST 5:51 PM EST
Moon 10:00 PM EST (12/4) 10:50 AM EST (12/4)
Length of Visible Light 10h 07m
Length of Day
9h 01m
Waning Gibbous, 69% of the Moon is Illuminated
Dec 4
Waning Gibbous
Dec 6
Last Quarter
Dec 13
New
Dec 20
First Quarter
Dec 28
Full

Hourly Weather History & Observations

Time (EST) Temp. Windchill Dew Point Humidity Pressure Visibility Wind Dir Wind Speed Gust Speed Precip Events Conditions
12:52 AM 34.0 °F - 32.0 °F 92% 30.30 in 10.0 mi Calm Calm - N/A   Overcast
1:52 AM 34.0 °F - 32.0 °F 92% 30.29 in 10.0 mi Calm Calm - N/A   Overcast
2:52 AM 34.0 °F - 30.9 °F 89% 30.30 in 10.0 mi Calm Calm - N/A   Overcast
3:08 AM 33.8 °F - 30.2 °F 87% 30.25 in 10.0 mi Calm Calm - N/A   Overcast
3:52 AM 34.0 °F - 30.9 °F 89% 30.29 in 10.0 mi Calm Calm - N/A   Overcast
4:52 AM 33.1 °F 30.0 °F 30.9 °F 92% 30.27 in 10.0 mi NE 3.5 mph - N/A   Overcast
5:52 AM 32.0 °F 27.5 °F 30.0 °F 92% 30.28 in 10.0 mi West 4.6 mph - N/A   Overcast
6:36 AM 33.8 °F 30.8 °F 30.2 °F 87% 30.23 in 10.0 mi East 3.5 mph - N/A   Overcast
6:52 AM 32.0 °F 27.5 °F 30.0 °F 92% 30.25 in 4.0 mi East 4.6 mph - N/A   Overcast
7:52 AM 32.0 °F - 30.9 °F 96% 30.27 in 5.0 mi Calm Calm - N/A   Overcast
8:52 AM 33.1 °F - 30.9 °F 92% 30.26 in 7.0 mi Calm Calm - N/A   Overcast
9:02 AM 33.8 °F - 30.2 °F 87% 30.21 in 7.0 mi Calm Calm - N/A   Overcast
9:52 AM 35.1 °F 32.2 °F 30.9 °F 85% 30.25 in 10.0 mi WNW 3.5 mph - N/A   Overcast
10:52 AM 36.0 °F 33.3 °F 32.0 °F 86% 30.21 in 10.0 mi SE 3.5 mph - N/A   Overcast
11:52 AM 37.0 °F - 34.0 °F 89% 30.18 in 10.0 mi Calm Calm - 0.00 in   Overcast
12:52 PM 39.0 °F - 35.1 °F 86% 30.15 in 10.0 mi Calm Calm - N/A   Overcast
1:52 PM 39.9 °F - 36.0 °F 86% 30.13 in 10.0 mi Calm Calm - N/A   Overcast
2:52 PM 43.0 °F - 37.0 °F 80% 30.11 in 10.0 mi Calm Calm - N/A   Mostly Cloudy
3:00 PM 42.8 °F - 37.4 °F 81% 30.07 in 10.0 mi Calm Calm - N/A   Scattered Clouds
3:52 PM 41.0 °F - 36.0 °F 82% 30.10 in 10.0 mi Calm Calm - N/A   Clear
4:50 PM 35.6 °F - 33.8 °F 93% 30.05 in 7.0 mi Calm Calm - N/A   Scattered Clouds
4:52 PM 36.0 °F - 34.0 °F 93% 30.09 in 6.0 mi Calm Calm - N/A   Mostly Cloudy
5:11 PM 35.6 °F - 33.8 °F 93% 30.04 in 6.0 mi Calm Calm - N/A   Mostly Cloudy
5:52 PM 33.1 °F - 30.9 °F 92% 30.07 in 2.0 mi Calm Calm - N/A   Clear
5:58 PM 32.0 °F - 30.2 °F 93% 30.03 in 1.0 mi Calm Calm - N/A   Clear
6:08 PM 32.0 °F - 30.2 °F 93% 30.02 in 2.0 mi Calm Calm - N/A   Clear
6:18 PM 32.0 °F - 30.2 °F 93% 30.02 in 3.0 mi Calm Calm - N/A   Clear
6:28 PM 32.0 °F - 30.2 °F 93% 30.01 in 2.5 mi Calm Calm - N/A   Partly Cloudy
6:32 PM 30.2 °F - 30.2 °F 100% 30.01 in 4.0 mi Calm Calm - N/A   Partly Cloudy
6:52 PM 30.9 °F - 28.9 °F 92% 30.04 in 7.0 mi Calm Calm - N/A   Clear
7:25 PM 30.2 °F - 28.4 °F 93% 29.98 in 2.0 mi Calm Calm - N/A   Partly Cloudy
7:36 PM 30.2 °F - 28.4 °F 93% 29.98 in 6.0 mi Calm Calm - N/A   Scattered Clouds
7:52 PM 30.0 °F - 28.0 °F 92% 30.01 in 7.0 mi Calm Calm - N/A   Mostly Cloudy
8:20 PM 30.2 °F - 28.4 °F 93% 29.95 in 1.8 mi Calm Calm - N/A   Overcast
8:32 PM 30.2 °F - 28.4 °F 93% 29.95 in 0.8 mi Calm Calm - N/A   Overcast
8:52 PM 30.0 °F - 28.0 °F 92% 29.99 in 0.5 mi Calm Calm - N/A Fog Light Freezing Fog
9:52 PM 30.9 °F - 30.0 °F 96% 29.96 in 0.2 mi Calm Calm - N/A Fog Light Freezing Fog
10:30 PM 32.0 °F - 30.2 °F 93% 29.90 in 0.2 mi Calm Calm - N/A Fog Fog
10:52 PM 32.0 °F - 30.9 °F 96% 29.93 in 0.8 mi Calm Calm - N/A   Overcast
10:58 PM 32.0 °F - 30.2 °F 93% 29.89 in 1.2 mi Calm Calm - N/A   Overcast
11:08 PM 32.0 °F - 30.2 °F 93% 29.88 in 2.5 mi Calm Calm - N/A   Overcast
11:18 PM 33.8 °F - 30.2 °F 87% 29.87 in 3.0 mi Calm Calm - N/A   Overcast
11:52 PM 33.1 °F - 32.0 °F 96% 29.89 in 6.0 mi Calm Calm - 0.00 in Rain Light Rain